When you browse on this site, cookies collect data to enhance your experience and personalize the content and advertising you see.
Visit our Privacy Policy to learn more. By continuing to use the site, you agree to this use of cookies and data.
  • en France
  • Liste des pays
  • À 7 jours
  • Température de l'eau
  • Carte météo
  • Widgets météo
  • user-avatar
    Se connecter

    Météo par heure à Salta

    Ce jour, 24 Février, Lundi

    Heure Température Précipitation Vent Pression Humidité
    00:00 +13°C° 0 mm 0 m/s 648 mmHg 80%
    01:00 +13°C° 0 mm 0 m/s 648 mmHg 80%
    02:00 +12°C° 0 mm 0 m/s 647 mmHg 80%
    03:00 +12°C° 0 mm 0 m/s 647 mmHg 80%
    04:00 +12°C° 0 mm 0 m/s 647 mmHg 80%
    05:00 +12°C° 0 mm 0 m/s 646 mmHg 80%
    06:00 +14°C° 0 mm 0 m/s 647 mmHg 75%
    07:00 +16°C° 0 mm 0 m/s 648 mmHg 69%
    08:00 +18°C° 0 mm 0 m/s 649 mmHg 64%
    09:00 +21°C° 0 mm 1 m/s 649 mmHg 59%
    10:00 +23°C° 0 mm 1 m/s 649 mmHg 55%
    11:00 +25°C° 0 mm 2 m/s 649 mmHg 50%
    12:00 +26°C° 0 mm 2 m/s 649 mmHg 48%
    13:00 +27°C° 0 mm 2 m/s 648 mmHg 47%
    14:00 +28°C° 0 mm 2 m/s 648 mmHg 45%
    15:00 +28°C° 0 mm 2 m/s 647 mmHg 47%
    16:00 +27°C° 0 mm 2 m/s 646 mmHg 49%
    17:00 +27°C° 0 mm 2 m/s 646 mmHg 51%
    18:00 +24°C° 0 mm 1 m/s 646 mmHg 59%
    19:00 +22°C° 0 mm 1 m/s 646 mmHg 67%
    20:00 +20°C° 0 mm 1 m/s 646 mmHg 75%
    21:00 +19°C° 0 mm 1 m/s 646 mmHg 75%
    22:00 +19°C° 0 mm 1 m/s 647 mmHg 76%
    23:00 +19°C° 0 mm 1 m/s 647 mmHg 77%

    Demain, 25 Février, Mardi

    Heure Température Précipitation Vent Pression Humidité
    00:00 +18°C° 0 mm 1 m/s 647 mmHg 77%
    01:00 +18°C° 0 mm 1 m/s 647 mmHg 77%
    02:00 +18°C° 0 mm 1 m/s 646 mmHg 77%
    03:00 +18°C° 0 mm 1 m/s 647 mmHg 78%
    04:00 +18°C° 0 mm 1 m/s 647 mmHg 78%
    05:00 +16°C° 0 mm 1 m/s 647 mmHg 78%
    06:00 +19°C° 0 mm 1 m/s 648 mmHg 74%
    07:00 +21°C° 0 mm 1 m/s 649 mmHg 70%
    08:00 +22°C° 0 mm 1 m/s 650 mmHg 66%
    09:00 +24°C° 0 mm 1 m/s 650 mmHg 60%
    10:00 +26°C° 0 mm 2 m/s 651 mmHg 55%
    11:00 +28°C° 0 mm 2 m/s 651 mmHg 49%
    12:00 +28°C° 0 mm 2 m/s 651 mmHg 49%
    13:00 +28°C° 0 mm 3 m/s 650 mmHg 49%
    14:00 +29°C° 0 mm 3 m/s 650 mmHg 48%
    15:00 +27°C° 0.1 mm 3 m/s 649 mmHg 55%
    16:00 +26°C° 0.1 mm 3 m/s 649 mmHg 62%
    17:00 +24°C° 0.1 mm 3 m/s 648 mmHg 69%
    18:00 +23°C° 0.4 mm 2 m/s 649 mmHg 75%
    19:00 +21°C° 0.4 mm 2 m/s 649 mmHg 81%
    20:00 +20°C° 0.4 mm 1 m/s 650 mmHg 87%
    21:00 +20°C° 2 mm 1 m/s 651 mmHg 90%
    22:00 +19°C° 2 mm 1 m/s 651 mmHg 93%
    23:00 +19°C° 2 mm 1 m/s 652 mmHg 96%

    Après-demain, 26 Février, Mercredi

    Heure Température Précipitation Vent Pression Humidité
    00:00 +19°C° 2.6 mm 1 m/s 652 mmHg 96%
    01:00 +18°C° 2.6 mm 1 m/s 652 mmHg 96%
    02:00 +18°C° 2.6 mm 1 m/s 652 mmHg 96%
    03:00 +18°C° 0.6 mm 1 m/s 652 mmHg 95%
    04:00 +18°C° 0.6 mm 1 m/s 652 mmHg 94%
    05:00 +18°C° 0.6 mm 1 m/s 653 mmHg 93%
    06:00 +19°C° 0.1 mm 1 m/s 653 mmHg 91%
    07:00 +19°C° 0.1 mm 1 m/s 654 mmHg 89%
    08:00 +20°C° 0.1 mm 1 m/s 654 mmHg 87%
    09:00 +22°C° 0 mm 1 m/s 654 mmHg 78%
    10:00 +24°C° 0 mm 1 m/s 655 mmHg 68%
    11:00 +26°C° 0 mm 1 m/s 655 mmHg 59%
    12:00 +27°C° 0.1 mm 2 m/s 655 mmHg 56%
    13:00 +27°C° 0.1 mm 2 m/s 654 mmHg 53%
    14:00 +28°C° 0.1 mm 2 m/s 653 mmHg 50%
    15:00 +27°C° 0.1 mm 2 m/s 653 mmHg 53%
    16:00 +27°C° 0.1 mm 2 m/s 652 mmHg 56%
    17:00 +26°C° 0.1 mm 1 m/s 651 mmHg 59%
    18:00 +24°C° 0 mm 1 m/s 651 mmHg 62%
    19:00 +23°C° 0 mm 1 m/s 651 mmHg 64%
    20:00 +22°C° 0 mm 1 m/s 651 mmHg 67%
    21:00 +22°C° 0 mm 1 m/s 652 mmHg 66%
    22:00 +21°C° 0 mm 1 m/s 652 mmHg 65%
    23:00 +21°C° 0 mm 1 m/s 653 mmHg 65%

    27 Février, Jeudi

    Heure Température Précipitation Vent Pression Humidité
    00:00 +20°C° 0 mm 1 m/s 652 mmHg 67%
    01:00 +20°C° 0 mm 1 m/s 652 mmHg 68%
    02:00 +19°C° 0 mm 1 m/s 651 mmHg 70%
    03:00 +19°C° 0 mm 1 m/s 651 mmHg 72%
    04:00 +18°C° 0 mm 1 m/s 651 mmHg 74%
    05:00 +15°C° 0 mm 0 m/s 651 mmHg 75%
    06:00 +17°C° 0 mm 0 m/s 651 mmHg 73%
    07:00 +18°C° 0 mm 0 m/s 652 mmHg 70%
    08:00 +19°C° 0 mm 0 m/s 652 mmHg 67%
    09:00 +23°C° 0 mm 1 m/s 652 mmHg 63%
    10:00 +24°C° 0 mm 2 m/s 653 mmHg 58%
    11:00 +26°C° 0 mm 2 m/s 653 mmHg 54%
    12:00 +26°C° 0 mm 2 m/s 652 mmHg 52%
    13:00 +26°C° 0 mm 2 m/s 652 mmHg 51%
    14:00 +27°C° 0 mm 2 m/s 651 mmHg 50%
    15:00 +27°C° 0 mm 2 m/s 650 mmHg 51%
    16:00 +26°C° 0 mm 2 m/s 650 mmHg 52%
    17:00 +26°C° 0 mm 2 m/s 649 mmHg 52%
    18:00 +24°C° 0 mm 1 m/s 649 mmHg 58%
    19:00 +23°C° 0 mm 1 m/s 649 mmHg 63%
    20:00 +21°C° 0 mm 1 m/s 650 mmHg 68%
    21:00 +20°C° 0 mm 1 m/s 650 mmHg 68%
    22:00 +20°C° 0 mm 1 m/s 650 mmHg 69%
    23:00 +20°C° 0 mm 1 m/s 650 mmHg 70%

    28 Février, Vendredi

    Heure Température Précipitation Vent Pression Humidité
    00:00 +19°C° 0 mm 1 m/s 650 mmHg 70%
    01:00 +19°C° 0 mm 1 m/s 650 mmHg 71%
    02:00 +18°C° 0 mm 1 m/s 650 mmHg 72%
    03:00 +18°C° 0 mm 1 m/s 650 mmHg 72%
    04:00 +18°C° 0 mm 1 m/s 650 mmHg 72%
    05:00 +18°C° 0 mm 1 m/s 650 mmHg 73%
    06:00 +19°C° 0 mm 1 m/s 650 mmHg 70%
    07:00 +18°C° 0 mm 0 m/s 651 mmHg 67%
    08:00 +20°C° 0 mm 0 m/s 652 mmHg 64%
    09:00 +23°C° 0 mm 1 m/s 652 mmHg 59%
    10:00 +25°C° 0 mm 1 m/s 652 mmHg 54%
    11:00 +26°C° 0 mm 2 m/s 653 mmHg 50%
    12:00 +27°C° 0 mm 2 m/s 652 mmHg 48%
    13:00 +28°C° 0 mm 2 m/s 652 mmHg 47%
    14:00 +28°C° 0 mm 2 m/s 651 mmHg 45%
    15:00 +28°C° 0 mm 2 m/s 651 mmHg 46%
    16:00 +28°C° 0 mm 2 m/s 651 mmHg 47%
    17:00 +27°C° 0 mm 1 m/s 650 mmHg 48%
    18:00 +25°C° 0 mm 1 m/s 650 mmHg 54%
    19:00 +23°C° 0 mm 1 m/s 650 mmHg 59%
    20:00 +21°C° 0 mm 1 m/s 651 mmHg 65%
    21:00 +21°C° 0 mm 1 m/s 651 mmHg 65%
    22:00 +21°C° 0 mm 1 m/s 652 mmHg 65%
    23:00 +20°C° 0 mm 1 m/s 652 mmHg 65%

    29 Février, Samedi

    Heure Température Précipitation Vent Pression Humidité
    00:00 +20°C° 0 mm 1 m/s 652 mmHg 66%
    01:00 +20°C° 0 mm 1 m/s 652 mmHg 67%
    02:00 +19°C° 0 mm 1 m/s 652 mmHg 67%
    03:00 +19°C° 0 mm 1 m/s 652 mmHg 66%
    04:00 +20°C° 0 mm 1 m/s 653 mmHg 66%
    05:00 +20°C° 0 mm 1 m/s 653 mmHg 65%
    06:00 +20°C° 0.1 mm 1 m/s 654 mmHg 65%
    07:00 +21°C° 0.1 mm 1 m/s 655 mmHg 65%
    08:00 +21°C° 0.1 mm 1 m/s 655 mmHg 65%
    09:00 +23°C° 0.1 mm 1 m/s 656 mmHg 59%
    10:00 +25°C° 0.1 mm 2 m/s 657 mmHg 52%
    11:00 +27°C° 0.1 mm 2 m/s 657 mmHg 46%
    12:00 +28°C° 0 mm 2 m/s 657 mmHg 43%
    13:00 +29°C° 0 mm 2 m/s 657 mmHg 41%
    14:00 +30°C° 0 mm 2 m/s 657 mmHg 38%
    15:00 +28°C° 0.2 mm 2 m/s 656 mmHg 44%
    16:00 +27°C° 0.2 mm 2 m/s 655 mmHg 51%
    17:00 +25°C° 0.2 mm 2 m/s 654 mmHg 57%
    18:00 +24°C° 0.5 mm 2 m/s 654 mmHg 62%
    19:00 +21°C° 0.5 mm 2 m/s 654 mmHg 68%
    20:00 +20°C° 0.5 mm 2 m/s 654 mmHg 73%
    21:00 +20°C° 0.3 mm 2 m/s 655 mmHg 73%
    22:00 +20°C° 0.3 mm 2 m/s 655 mmHg 73%
    23:00 +19°C° 0.3 mm 2 m/s 656 mmHg 73%
    Voir plus